Temp
64 64 63 63 64 64 64 63 63 63 63 62 62 62 62 63 61 62 61 61 60 61 60 60 59 60 59 58 58 57 57 56 54 53 54 52 51 50 49 46 46 47
64 64 62 63 63 62 63 64 63 63 63 63 63 62 62 61 61 61 60 60 59 60 60 59 59 60 59 58 57 57 55 54 54 52 52 51 50 50 49 46 45 44
64 63 63 62 63 63 63 63 63 63 63 63 63 62 62 60 60 60 60 60 59 58 58 58 59 58 58 57 57 55 54 53 53 51 51 51 50 50 48 46 44 44
63 64 64 63 63 63 63 62 62 62 62 61 62 61 61 59 59 59 59 56 59 58 57 57 58 57 57 56 55 54 54 54 53 51 50 48 47 47 44 44 43 41
63 63 63 63 63 63 62 62 61 61 61 61 60 58 57 58 57 57 57 56 57 57 55 55 56 55 56 55 55 53 52 52 49 49 48 47 44 45 43 43 41 40
60 62 62 61 61 60 60 60 61 60 60 59 59 57 59 59 58 56 55 55 55 54 54 53 53 54 55 55 54 53 51 49 48 48 47 46 43 43 43 42 41 39
57 57 58 59 57 58 58 59 59 57 59 59 57 57 58 57 57 57 57 56 54 53 54 54 54 53 54 54 53 51 50 49 46 46 46 43 43 41 39 39 39 39
55 54 56 56 56 56 56 57 57 56 57 55 56 56 56 57 57 57 56 56 55 54 54 53 54 54 53 52 51 49 47 47 45 45 44 42 41 41 38 39 38 38
51 51 52 51 53 53 54 54 54 53 54 56 55 55 55 56 56 56 56 55 55 54 54 53 53 52 52 51 50 49 47 46 45 44 43 41 40 40 38 37 37 37
48 45 47 47 50 48 50 49 50 51 52 55 55 54 55 54 56 56 55 55 54 53 53 53 52 51 50 49 50 48 47 46 44 43 42 41 41 39 38 37 37 36
47 47 48 47 47 45 47 47 48 49 51 54 53 53 54 53 53 54 54 53 53 53 52 52 51 51 49 48 48 47 47 45 43 43 42 41 41 39 38 37 37 37
47 48 48 48 47 46 46 47 49 49 51 50 53 54 52 52 53 52 52 52 52 52 52 52 51 50 49 48 46 44 45 44 43 43 42 41 40 39 38 38 37 37
44 44 45 46 45 45 45 45 47 47 49 50 48 52 51 50 49 51 50 52 52 52 52 51 50 48 47 46 44 43 43 42 41 40 40 40 39 39 38 37 37 36
41 43 45 44 44 45 45 45 45 45 47 47 45 50 50 50 51 51 50 50 51 51 51 49 48 47 45 43 42 41 41 40 39 38 38 39 39 39 38 37 36 36
42 41 40 39 41 42 42 43 43 43 42 42 42 44 47 47 48 48 46 46 45 46 46 45 46 46 45 43 41 40 40 39 39 38 39 39 38 37 36 36 35 36
42 42 43 41 40 41 40 39 40 40 40 40 41 41 41 41 42 42 42 43 44 43 42 43 43 44 40 41 42 42 41 41 40 40 40 39 37 36 34 34 34 35
41 41 41 41 39 38 37 37 38 37 38 38 39 38 39 38 38 39 39 39 41 41 41 41 42 43 40 42 43 43 41 41 40 39 39 38 38 37 35 34 34 34
39 39 39 39 38 38 37 36 36 36 36 37 36 37 37 37 38 39 39 38 39 39 40 40 41 41 42 42 43 42 40 38 37 36 38 38 38 37 36 35 34 33
38 38 38 37 37 37 36 36 36 36 36 36 37 36 35 37 38 38 38 37 38 39 39 39 39 40 41 42 42 42 41 40 39 39 38 38 38 37 36 35 33 33
37 37 37 36 35 35 35 35 36 36 35 35 35 35 36 36 36 37 37 37 38 39 39 38 38 38 41 41 41 41 41 41 39 39 39 38 38 37 36 35 34 33
37 37 36 35 35 35 35 35 35 35 35 35 35 36 36 37 37 37 37 37 37 37 37 37 37 39 41 41 41 41 42 39 35 37 38 37 37 36 35 35 34 34
37 36 35 35 35 35 35 35 35 35 35 35 35 35 35 35 36 36 36 36 36 36 36 36 35 39 40 41 41 41 41 36 34 36 37 36 35 35 35 34 34 34
36 36 35 35 35 35 35 34 35 34 35 35 35 35 35 35 35 35 35 35 35 36 37 37 35 38 39 40 41 41 39 36 36 36 36 36 35 35 35 34 34 33
36 36 35 35 34 35 35 34 34 34 34 35 35 35 35 34 35 35 35 35 35 35 36 35 35 36 39 40 40 41 39 36 36 36 35 34 34 34 33 32 32 32
36 36 35 35 34 34 34 34 34 34 34 34 35 35 34 34 34 34 34 34 35 35 35 35 34 34 38 39 40 40 39 36 36 35 33 33 32 31 31 31 31 31
37 35 35 35 34 34 34 34 34 34 34 34 34 34 34 34 34 34 34 34 34 34 34 35 34 34 36 39 39 40 39 36 35 35 34 32 31 30 29 28 29 30
MSLP
1015.60 1015.78 1016.02 1016.28 1016.28 1016.32 1016.48 1016.64 1016.62 1016.72 1016.78 1016.92 1017.08 1017.08 1017.20 1017.22 1017.60 1017.80 1017.96 1018.22 1018.42 1018.66 1018.90 1019.14 1019.42 1019.66 1019.90 1020.16 1020.38 1020.62 1020.86 1021.06 1021.32 1021.56 1021.72 1021.96 1022.22 1022.48 1022.78 1023.02 1023.12 1023.12
1015.14 1015.36 1015.62 1015.80 1015.94 1015.98 1015.98 1016.00 1016.18 1016.34 1016.36 1016.44 1016.50 1016.70 1016.86 1017.16 1017.34 1017.52 1017.82 1018.10 1018.32 1018.46 1018.64 1018.94 1019.18 1019.32 1019.60 1019.92 1020.22 1020.48 1020.78 1021.06 1021.26 1021.58 1021.74 1021.94 1022.16 1022.42 1022.54 1022.82 1022.88 1023.20
1014.74 1014.96 1015.08 1015.18 1015.18 1015.26 1015.42 1015.58 1015.76 1015.86 1015.94 1015.96 1016.20 1016.40 1016.62 1016.88 1017.12 1017.32 1017.52 1017.76 1018.06 1018.28 1018.48 1018.68 1018.92 1019.12 1019.38 1019.70 1020.08 1020.42 1020.72 1021.04 1021.24 1021.56 1021.66 1021.80 1022.10 1022.24 1022.46 1022.76 1022.98 1022.98
1013.96 1014.06 1014.24 1014.38 1014.54 1014.72 1014.94 1015.24 1015.32 1015.40 1015.54 1015.78 1015.82 1015.98 1016.26 1016.54 1016.78 1017.04 1017.28 1017.54 1017.80 1018.06 1018.32 1018.56 1018.76 1019.02 1019.28 1019.58 1019.96 1020.36 1020.58 1020.76 1020.96 1021.34 1021.50 1021.86 1022.04 1022.16 1022.52 1022.78 1022.98 1023.20
1013.32 1013.52 1013.66 1013.82 1014.02 1014.30 1014.60 1014.80 1014.88 1015.00 1015.16 1015.22 1015.50 1015.72 1015.96 1016.22 1016.50 1016.80 1017.04 1017.36 1017.58 1017.92 1018.20 1018.40 1018.64 1018.90 1019.16 1019.48 1019.78 1020.16 1020.46 1020.68 1021.06 1021.28 1021.42 1021.70 1022.06 1022.22 1022.54 1022.74 1022.96 1023.10
1013.16 1013.22 1013.40 1013.66 1013.84 1014.14 1014.36 1014.38 1014.48 1014.70 1014.86 1015.08 1015.12 1015.42 1015.58 1015.78 1016.12 1016.40 1016.72 1017.06 1017.38 1017.68 1017.98 1018.22 1018.48 1018.70 1018.94 1019.20 1019.50 1019.70 1020.06 1020.50 1020.86 1021.06 1021.30 1021.56 1022.04 1022.26 1022.46 1022.64 1022.86 1023.08
1013.06 1013.28 1013.44 1013.60 1013.84 1013.98 1014.10 1014.20 1014.32 1014.48 1014.62 1014.72 1015.06 1015.20 1015.32 1015.60 1015.82 1016.08 1016.38 1016.70 1017.10 1017.44 1017.70 1017.96 1018.20 1018.48 1018.70 1018.94 1019.18 1019.44 1019.76 1019.96 1020.50 1020.86 1021.16 1021.68 1021.98 1022.26 1022.46 1022.58 1022.76 1022.96
1012.96 1013.14 1013.26 1013.46 1013.66 1013.80 1013.90 1014.04 1014.16 1014.30 1014.42 1014.70 1014.78 1014.92 1015.10 1015.30 1015.50 1015.78 1016.10 1016.44 1016.78 1017.12 1017.46 1017.72 1017.92 1018.12 1018.38 1018.60 1018.92 1019.32 1019.78 1020.18 1020.52 1020.70 1021.06 1021.54 1021.88 1022.04 1022.42 1022.58 1022.74 1023.02
1012.86 1013.00 1013.14 1013.28 1013.42 1013.54 1013.66 1013.76 1013.88 1014.00 1014.14 1014.26 1014.42 1014.66 1014.90 1015.00 1015.26 1015.54 1015.84 1016.16 1016.50 1016.80 1017.10 1017.48 1017.74 1017.96 1018.14 1018.28 1018.56 1018.82 1019.26 1019.86 1020.20 1020.42 1020.72 1021.20 1021.56 1021.76 1022.16 1022.56 1022.86 1023.14
1012.74 1012.94 1013.00 1013.12 1013.18 1013.32 1013.44 1013.56 1013.68 1013.82 1014.00 1014.08 1014.22 1014.50 1014.70 1014.94 1015.10 1015.30 1015.58 1015.84 1016.18 1016.64 1016.90 1017.16 1017.46 1017.68 1017.92 1018.00 1018.00 1018.36 1018.84 1019.30 1019.86 1020.16 1020.40 1020.66 1020.94 1021.48 1021.98 1022.38 1022.64 1023.14
1012.84 1013.06 1013.04 1013.12 1013.12 1013.20 1013.22 1013.36 1013.46 1013.62 1013.84 1013.90 1014.20 1014.40 1014.52 1014.78 1015.04 1015.18 1015.34 1015.62 1015.94 1016.28 1016.62 1016.94 1017.18 1017.42 1017.72 1017.98 1018.00 1018.06 1018.30 1018.82 1019.40 1019.82 1020.14 1020.40 1020.64 1021.02 1021.52 1021.98 1022.54 1022.84
1013.06 1013.18 1013.22 1013.24 1013.28 1013.32 1013.28 1013.28 1013.34 1013.38 1013.52 1013.72 1013.86 1014.04 1014.36 1014.56 1014.70 1015.04 1015.20 1015.38 1015.66 1016.06 1016.32 1016.52 1016.80 1017.14 1017.36 1017.50 1017.68 1018.00 1018.28 1018.62 1019.04 1019.42 1019.88 1020.28 1020.56 1020.86 1021.24 1021.62 1022.10 1022.60
1013.12 1013.26 1013.32 1013.36 1013.42 1013.42 1013.44 1013.44 1013.42 1013.44 1013.48 1013.60 1013.88 1013.96 1014.16 1014.42 1014.68 1014.76 1014.96 1015.10 1015.36 1015.62 1015.86 1016.10 1016.44 1016.78 1017.08 1017.46 1017.80 1018.16 1018.36 1018.60 1019.04 1019.48 1020.04 1020.48 1020.64 1020.70 1020.94 1021.24 1021.74 1022.26
1013.28 1013.42 1013.46 1013.50 1013.56 1013.50 1013.42 1013.40 1013.46 1013.52 1013.50 1013.60 1013.84 1013.96 1014.16 1014.22 1014.32 1014.44 1014.56 1014.70 1014.84 1015.22 1015.48 1015.74 1016.12 1016.56 1016.92 1017.32 1017.72 1018.10 1018.36 1018.60 1018.90 1019.30 1019.88 1020.46 1020.76 1020.90 1020.96 1021.04 1021.44 1021.94
1013.20 1013.48 1013.68 1013.76 1013.80 1013.82 1013.80 1013.78 1013.82 1013.84 1013.90 1014.02 1014.18 1014.24 1014.36 1014.50 1014.68 1014.82 1014.96 1015.10 1015.26 1015.44 1015.66 1015.92 1016.16 1016.42 1016.70 1017.04 1017.48 1018.06 1018.44 1018.74 1019.04 1019.32 1019.76 1020.30 1020.76 1021.14 1021.50 1021.50 1021.54 1021.84
1013.34 1013.46 1013.66 1013.88 1013.94 1013.86 1013.84 1013.86 1013.86 1014.00 1014.14 1014.26 1014.40 1014.60 1014.74 1014.90 1015.00 1015.14 1015.26 1015.38 1015.54 1015.70 1015.90 1016.20 1016.44 1016.62 1016.84 1017.04 1017.28 1017.52 1018.02 1018.50 1018.98 1019.24 1019.62 1020.12 1020.62 1021.10 1021.48 1021.78 1021.82 1021.84
1013.52 1013.60 1013.76 1013.90 1013.98 1014.08 1014.16 1014.22 1014.28 1014.42 1014.46 1014.52 1014.66 1014.80 1014.90 1015.08 1015.22 1015.36 1015.48 1015.68 1015.84 1016.02 1016.14 1016.32 1016.52 1016.70 1016.94 1017.18 1017.44 1017.72 1017.98 1018.28 1018.54 1019.00 1019.60 1020.14 1020.48 1020.70 1020.96 1021.44 1021.82 1021.96
1013.58 1013.68 1013.76 1013.84 1013.98 1014.06 1014.14 1014.34 1014.54 1014.56 1014.56 1014.68 1014.80 1014.86 1015.04 1015.22 1015.24 1015.34 1015.52 1015.70 1015.86 1016.04 1016.18 1016.32 1016.42 1016.56 1016.84 1017.12 1017.38 1017.60 1017.94 1018.32 1018.72 1019.12 1019.48 1019.82 1020.14 1020.46 1020.82 1021.14 1021.46 1021.82
1013.56 1013.62 1013.70 1013.86 1013.98 1014.08 1014.28 1014.40 1014.44 1014.54 1014.66 1014.76 1014.70 1015.02 1015.24 1015.20 1015.24 1015.44 1015.56 1015.78 1015.88 1016.00 1016.16 1016.34 1016.50 1016.66 1016.94 1017.24 1017.54 1017.82 1018.08 1018.34 1018.60 1018.82 1019.18 1019.50 1019.74 1019.92 1020.30 1020.78 1021.16 1021.52
1013.50 1013.60 1013.68 1013.88 1014.18 1014.34 1014.42 1014.46 1014.50 1014.38 1014.62 1014.88 1015.04 1015.22 1015.12 1015.22 1015.46 1015.52 1015.68 1015.80 1015.84 1015.88 1016.04 1016.32 1016.50 1016.68 1016.92 1017.24 1017.60 1017.92 1018.16 1018.42 1018.64 1018.86 1019.16 1019.44 1019.70 1019.88 1020.18 1020.58 1020.84 1021.00
1013.50 1013.56 1013.68 1014.04 1014.24 1014.32 1014.36 1014.36 1014.42 1014.62 1014.78 1014.94 1015.02 1015.08 1015.16 1015.20 1015.38 1015.50 1015.66 1015.78 1015.92 1016.02 1016.12 1016.30 1016.46 1016.66 1016.86 1017.14 1017.48 1017.90 1018.36 1018.72 1018.92 1019.16 1019.40 1019.58 1019.80 1020.00 1020.14 1020.36 1020.68 1020.90
1013.46 1013.58 1013.74 1013.98 1014.14 1014.28 1014.26 1014.26 1014.40 1014.44 1014.52 1014.92 1015.06 1015.24 1015.38 1015.48 1015.56 1015.66 1015.70 1015.84 1016.02 1016.14 1016.26 1016.32 1016.56 1016.64 1016.78 1017.00 1017.32 1017.62 1017.98 1018.56 1019.00 1019.20 1019.42 1019.60 1019.78 1020.00 1020.26 1020.50 1020.68 1020.80
1013.48 1013.54 1013.68 1013.84 1014.06 1014.12 1014.12 1014.22 1014.32 1014.52 1014.72 1014.92 1014.90 1015.08 1015.20 1015.32 1015.38 1015.54 1015.72 1015.90 1016.08 1016.22 1016.26 1016.40 1016.62 1016.66 1016.64 1016.78 1017.02 1017.38 1017.92 1018.48 1018.80 1019.08 1019.26 1019.42 1019.64 1019.88 1020.24 1020.54 1020.70 1020.80
1013.40 1013.48 1013.58 1013.84 1014.06 1014.04 1014.14 1014.40 1014.62 1014.76 1014.86 1015.02 1014.94 1015.16 1015.34 1015.56 1015.74 1015.88 1016.06 1016.18 1016.30 1016.42 1016.54 1016.60 1016.80 1016.96 1016.90 1016.88 1017.00 1017.20 1017.52 1018.04 1018.44 1018.72 1019.08 1019.38 1019.76 1020.10 1020.46 1020.74 1020.90 1021.02
1013.34 1013.58 1013.72 1013.96 1014.12 1014.28 1014.50 1014.60 1014.78 1014.92 1015.16 1015.34 1015.44 1015.56 1015.72 1015.86 1015.98 1016.08 1016.26 1016.38 1016.48 1016.56 1016.68 1016.72 1016.90 1017.08 1017.12 1017.14 1017.22 1017.38 1017.70 1018.08 1018.34 1018.66 1019.06 1019.50 1019.92 1020.36 1020.66 1020.86 1021.04 1021.16
1013.44 1013.76 1014.04 1014.24 1014.42 1014.72 1014.96 1015.08 1015.22 1015.30 1015.42 1015.56 1015.70 1015.82 1015.96 1016.10 1016.24 1016.32 1016.40 1016.56 1016.66 1016.68 1016.70 1016.76 1016.88 1017.04 1017.16 1017.22 1017.30 1017.42 1017.66 1018.04 1018.40 1018.68 1018.94 1019.32 1019.72 1020.00 1020.30 1020.58 1020.78 1020.96
Wind_Speed
13 12 12 12 12 11 10 11 10 11 11 10 11 11 11 11 8 11 11 10 10 11 10 10 9 9 9 9 9 8 8 8 7 7 7 7 6 7 7 6 6 7
15 13 11 10 10 10 11 11 11 11 11 11 10 9 9 8 9 9 9 10 9 10 10 9 9 10 10 9 8 8 7 7 8 5 7 7 7 7 7 7 6 6
13 13 14 14 13 13 13 11 10 11 11 11 10 9 9 8 9 9 9 10 10 9 9 10 10 10 10 9 8 8 8 7 8 6 7 8 6 7 7 7 6 8
14 15 15 15 13 13 11 10 11 10 9 9 11 9 9 8 9 10 9 10 10 9 8 8 10 9 9 9 9 8 8 9 8 8 8 5 6 7 7 6 6 5
14 13 13 13 12 11 9 11 12 11 10 10 7 8 8 9 9 8 9 8 8 8 8 8 8 9 9 9 9 8 8 8 6 7 7 7 6 7 6 7 7 7
9 11 10 10 9 10 10 11 11 10 9 8 10 8 9 10 9 10 9 9 7 8 8 8 9 9 10 10 10 10 10 8 8 9 9 9 7 6 7 7 8 8
8 7 8 7 6 8 9 9 8 8 8 8 6 9 9 9 10 10 10 10 9 8 9 9 10 10 9 9 10 10 9 10 10 9 9 6 7 7 5 7 8 8
7 6 7 6 7 7 8 8 7 8 7 6 8 8 9 10 10 10 9 10 10 10 9 9 10 11 11 10 11 10 9 7 8 10 9 9 8 9 7 7 7 8
6 6 6 6 8 7 8 8 7 7 7 9 9 8 7 9 10 9 10 10 9 10 10 10 11 10 10 11 11 12 12 10 10 11 11 11 10 10 9 7 8 8
5 3 4 5 7 6 7 6 7 6 6 7 7 7 8 7 8 9 9 10 10 10 10 10 11 10 10 11 13 13 12 12 11 11 10 11 12 11 10 9 9 8
2 1 2 2 4 4 5 5 5 6 6 7 6 7 7 7 7 7 10 10 10 11 11 11 11 11 11 11 11 11 13 12 12 11 11 11 11 12 11 11 10 10
2 1 2 3 4 4 4 4 5 5 6 5 7 9 7 7 9 8 9 9 9 10 11 12 11 11 12 13 10 9 10 10 11 11 10 10 10 10 11 11 11 10
4 4 3 3 4 4 4 4 4 4 5 5 5 6 8 8 6 8 8 9 10 11 12 12 11 11 10 9 8 8 9 10 9 8 8 8 8 10 11 11 10 9
2 1 1 2 1 1 3 4 4 5 6 5 5 7 7 8 9 11 10 10 11 11 11 11 11 11 10 9 9 9 10 10 10 10 8 8 8 8 9 10 10 10
3 2 2 1 1 1 2 2 3 2 2 2 3 4 4 5 5 5 5 6 5 6 5 6 8 9 9 9 10 9 8 8 8 9 10 10 9 7 5 6 7 8
3 3 2 1 0 1 1 0 0 0 1 3 3 2 2 1 2 2 4 5 6 5 5 5 5 5 9 14 13 12 12 10 9 10 10 9 9 9 7 6 6 7
3 3 4 4 3 3 2 2 2 2 2 2 1 2 2 2 3 3 3 3 4 4 5 5 6 6 11 13 13 12 10 10 11 10 9 9 10 11 11 10 7 6
5 5 5 5 4 4 3 3 3 3 3 2 2 3 2 3 3 4 4 4 4 4 5 6 6 8 12 14 15 15 12 10 8 9 10 10 10 10 9 9 10 8
5 5 5 4 4 4 4 4 4 3 3 3 4 3 3 3 4 4 4 4 5 6 6 5 5 7 10 12 12 13 14 11 9 9 10 10 11 11 11 11 10 9
5 5 5 5 3 4 4 4 4 5 4 3 3 3 4 3 3 4 4 5 6 7 6 5 5 7 11 12 12 12 13 10 6 8 8 9 10 10 9 10 11 11
6 5 5 5 4 4 5 5 5 4 4 4 4 4 5 6 6 5 6 5 5 4 4 5 5 8 11 13 12 12 11 7 5 6 6 7 7 7 9 10 10 9
6 5 5 5 5 5 5 6 5 5 6 4 4 3 2 2 3 4 5 5 4 4 5 5 4 10 12 14 15 15 15 7 6 7 7 7 7 7 7 7 8 9
6 7 6 7 6 6 6 6 6 5 4 4 5 4 4 4 4 3 3 3 4 5 6 6 5 9 13 15 16 17 12 7 7 7 7 8 9 7 7 7 7 7
6 6 7 6 5 6 6 4 3 2 3 3 4 4 3 2 2 1 1 2 3 3 4 4 3 6 12 13 15 17 13 9 8 7 7 6 5 4 4 4 4 7
6 5 5 5 5 4 3 4 4 3 2 2 2 2 2 2 2 2 2 2 2 3 4 4 3 4 9 10 13 14 11 6 6 6 6 5 4 4 3 4 4 6
5 4 3 3 3 2 1 2 2 3 3 3 2 2 2 2 2 2 2 2 2 3 3 4 4 4 6 10 11 12 11 6 4 6 7 7 6 7 7 5 6 7
Wind_Direction
212 212 214 215 219 219 217 214 211 210 210 207 208 209 208 210 198 201 202 200 201 198 195 190 185 181 180 179 181 181 187 190 188 178 178 174 179 168 173 170 173 168
213 213 214 216 220 219 219 215 214 213 215 213 213 210 212 202 204 200 199 199 197 199 191 186 185 184 179 179 180 181 185 181 183 165 171 175 178 175 177 175 165 150
210 211 212 213 215 215 215 213 211 214 215 215 213 211 208 201 201 200 198 196 194 194 189 187 186 186 181 178 175 179 179 179 180 173 170 181 170 179 175 165 160 166
209 210 212 215 215 215 210 209 213 214 212 210 211 204 198 193 192 193 194 189 191 192 189 185 187 184 181 177 172 178 181 183 179 170 175 170 177 167 166 162 157 156
212 211 212 214 215 214 206 210 212 211 208 211 200 189 185 183 184 183 184 184 185 187 183 187 183 182 180 177 172 173 178 175 165 168 167 173 175 166 167 158 164 165
221 219 215 212 211 205 209 213 212 207 206 199 197 180 189 185 182 182 179 179 180 178 182 181 181 183 181 178 175 178 173 173 177 173 175 176 174 173 163 167 163 168
215 212 217 213 208 206 210 214 211 203 204 198 173 191 181 182 185 184 183 180 176 179 183 185 185 183 182 178 179 177 179 177 169 172 171 170 160 166 166 163 168 169
218 211 209 206 207 207 210 208 205 201 196 182 191 190 180 183 186 185 182 181 181 184 189 191 191 186 183 179 176 172 170 166 169 168 168 168 169 171 174 173 164 165
205 208 200 201 203 207 209 204 203 198 189 189 191 185 188 182 184 181 181 181 186 189 190 192 193 192 188 183 180 175 172 175 176 175 172 171 176 178 175 164 163 169
165 156 158 174 190 200 200 204 198 195 187 190 186 178 185 190 182 182 180 182 185 190 194 193 194 194 191 192 184 178 177 178 176 180 178 177 178 174 170 169 170 165
144 127 159 182 187 185 189 187 183 180 182 185 173 184 187 177 187 184 182 181 187 190 192 195 196 192 192 194 191 186 181 175 176 179 182 181 179 174 170 168 168 177
160 163 210 221 222 225 212 197 187 181 180 184 180 183 182 187 181 184 185 184 183 191 197 198 195 194 197 198 191 182 178 175 176 179 180 180 177 171 169 169 171 176
191 206 201 219 225 228 229 220 207 200 178 184 190 187 182 184 191 182 189 187 194 196 198 196 195 193 193 188 180 179 178 171 167 166 172 180 183 175 173 170 170 173
172 186 225 253 264 249 229 216 203 200 205 197 184 196 200 202 197 200 203 197 194 193 197 192 188 186 182 179 176 178 174 170 169 167 168 176 181 182 178 172 169 174
140 123 101 86 119 161 188 210 218 225 211 180 194 202 200 199 201 203 191 202 203 198 194 187 188 192 189 179 164 165 165 165 166 167 170 173 172 170 178 178 168 173
174 178 164 132 112 163 244 303 345 339 170 192 207 213 217 197 196 194 193 203 198 192 178 174 186 182 180 178 179 173 172 171 170 171 170 169 167 165 168 180 181 175
201 197 215 228 206 170 134 139 141 130 133 132 122 122 148 146 145 162 186 181 183 184 180 181 184 188 185 184 183 178 171 172 171 165 162 168 174 174 174 172 178 177
191 187 189 201 191 190 172 155 129 126 127 125 123 135 134 127 156 179 180 179 175 182 189 193 195 190 185 185 183 178 172 163 158 162 172 175 176 177 175 172 171 168
181 181 185 184 193 181 163 149 152 144 142 149 175 170 131 158 186 169 185 178 176 185 195 197 202 181 183 186 184 179 175 168 173 173 172 179 180 179 174 174 169 164
178 176 179 181 163 153 152 154 163 180 172 158 143 148 173 176 174 187 180 183 189 191 193 184 185 175 176 178 180 182 179 173 167 171 176 180 183 181 178 177 175 170
177 175 170 160 163 159 158 166 170 160 164 172 171 180 182 189 187 189 196 192 194 185 176 182 186 172 172 172 171 169 170 158 155 164 177 183 186 185 184 182 179 177
174 169 163 164 165 165 165 171 174 177 174 165 156 161 166 158 181 176 187 191 184 172 170 186 180 174 171 170 170 171 167 159 167 174 183 187 188 189 186 186 184 181
173 169 171 171 172 171 178 178 175 175 168 159 160 173 174 186 193 188 175 172 175 182 183 186 185 185 177 174 173 171 163 167 173 181 190 190 195 188 188 186 189 186
177 174 171 173 172 181 184 182 167 151 165 172 170 171 181 178 144 124 115 153 173 189 191 180 194 198 186 182 177 176 173 173 179 182 189 190 186 177 170 180 187 185
169 170 168 167 179 185 172 166 169 159 117 115 94 103 109 112 122 130 125 136 156 161 161 172 170 199 199 192 184 181 175 173 174 178 177 178 161 157 148 164 178 184
153 155 150 158 160 134 124 116 105 104 119 120 100 104 104 99 111 129 151 151 139 152 164 163 161 176 193 194 190 189 176 161 160 169 185 176 170 175 178 190 186 188